Location: Banff
(51.1670°N, 115.5670°W)
Time: 14:11:02
(UTC-07:00)

Amateur Radio Satellites - All Passes

Search period start: 01 February 2015 13:41
Search period end: 02 February 2015 13:41
Location: Banff, 51.1670°N, 115.5670°W

Satellite Date Start Highest point End Downlink Frequencies (MHz)
Time Altitude Azimuth
CUBEBUG 1 01 Feb 13:43:49 13:47:02 19° 300° (WNW) 13:50:08 437.445
PCSat 01 Feb 13:44:23 13:49:26 39° 244° (WSW) 13:54:24 145.827
Oscar 19 01 Feb 13:44:41 13:49:45 51° 261° (W) 13:54:49 437.125/150
RS-15 01 Feb 13:45:51 13:57:08 79° 234° (SW) 14:08:54 29.354- 29.394
CUSAT 1 01 Feb 13:45:56 13:50:52 23° 52° (NE) 13:55:01 437.405
Gurwin Techsat 1B 01 Feb 13:47:10 13:52:18 54° 69° (ENE) 13:57:30 435.225
VELOX 1 01 Feb 13:48:24 13:49:14 10° 308° (NW) 13:49:52 145.980
SWISSCUBE 01 Feb 14:05:55 14:10:36 50° 99° (E) 14:15:16 437.505
ITAMSAT 1 01 Feb 14:08:30 14:13:42 78° 256° (WSW) 14:18:57 435.822/435.867
AO-7 01 Feb 14:15:58 14:23:28 40° 53° (NE) 14:31:05 29.400- 29.500
SO-50 01 Feb 14:19:37 14:22:46 17° 356° (N) 14:25:57 436.795
BEESAT 01 Feb 14:20:58 14:25:44 64° 101° (ESE) 14:30:30 436.000
GONETS M04 01 Feb 14:25:24 14:32:41 30° 279° (W) 14:39:45
ITUPSAT 1 01 Feb 14:27:10 14:31:58 71° 103° (ESE) 14:36:46 437.325
JAS-2 01 Feb 14:37:30 14:40:18 15° 52° (NE) 14:43:17 435.910
HORYU 2 01 Feb 14:38:00 14:42:20 50° 69° (ENE) 14:46:42 437.375
SPROUT 01 Feb 14:51:19 14:53:53 15° 303° (WNW) 14:56:18 437.525
STARS 01 Feb 15:05:35 15:09:25 28° 94° (E) 15:13:17 437.465
DANDE 01 Feb 15:18:44 15:25:39 83° 77° (ENE) 15:30:42 436.750
KKS-1 01 Feb 15:19:52 15:24:19 54° 101° (E) 15:28:43 437.445
Gurwin Techsat 1B 01 Feb 15:28:06 15:32:37 27° 268° (W) 15:37:06 435.225
CUSAT 1 01 Feb 15:28:35 15:34:55 72° 262° (W) 15:39:34 437.405
SWISSCUBE 01 Feb 15:44:15 15:48:16 27° 298° (WNW) 15:52:12 437.505
ITAMSAT 1 01 Feb 15:51:45 15:54:13 13° 277° (W) 15:56:25 435.822/435.867
RS-15 01 Feb 15:59:16 16:08:03 26° 257° (WSW) 16:16:38 29.354- 29.394
BEESAT 01 Feb 15:59:33 16:03:14 22° 301° (WNW) 16:06:49 436.000
SO-50 01 Feb 16:01:10 16:04:57 22° 20° (NNE) 16:08:49 436.795
O/OREOS (USA 219) 01 Feb 16:03:44 16:07:59 42° 110° (ESE) 16:12:17 437.305
ITUPSAT 1 01 Feb 16:05:55 16:09:27 20° 302° (WNW) 16:12:53 437.325
AO-7 01 Feb 16:07:36 16:15:56 67° 255° (WSW) 16:24:19 29.400- 29.500
M-CUBED/EXP-1 PRIME 01 Feb 16:13:36 16:16:40 33° 104° (ESE) 16:19:50 437.505
HORYU 2 01 Feb 16:15:40 16:19:18 23° 268° (W) 16:22:51 437.375
JAS-2 01 Feb 16:19:27 16:24:44 79° 73° (ENE) 16:29:58 435.910
Cubesat XI-IV 01 Feb 16:41:29 16:45:45 26° 59° (ENE) 16:50:08 437.490
STARS 01 Feb 16:41:51 16:46:03 40° 293° (WNW) 16:50:10 437.465
AUBIESAT-1 01 Feb 16:43:30 16:46:50 69° 109° (ESE) 16:50:15 437.475
KKS-1 01 Feb 16:57:07 17:00:40 23° 299° (WNW) 17:04:09 437.445
CUTE-I 01 Feb 16:59:47 17:04:30 34° 62° (ENE) 17:09:18 437.470
DANDE 01 Feb 17:03:33 17:07:54 19° 283° (WNW) 17:11:23 436.750
CUSAT 1 01 Feb 17:14:12 17:16:21 12° 287° (WNW) 17:18:04 437.405
MOZHAYETS 4 01 Feb 17:25:29 17:29:58 51° 99° (E) 17:34:27
SO-50 01 Feb 17:41:35 17:46:27 60° 43° (NE) 17:51:21 436.795
YUBILEINY 01 Feb 17:41:53 17:45:09 13° 69° (ENE) 17:48:58 435.215
O/OREOS (USA 219) 01 Feb 17:43:29 17:47:32 31° 311° (NW) 17:51:37 437.305
M-CUBED/EXP-1 PRIME 01 Feb 17:49:00 17:51:36 21° 301° (WNW) 17:54:11 437.505
CUBESAT XI-V 01 Feb 17:54:17 17:54:58 10° 82° (E) 17:55:55 437.345
HO-68 01 Feb 17:57:32 18:01:27 16° 41° (NE) 18:05:34 435.675
PRISM 01 Feb 17:57:37 17:59:16 12° 86° (E) 18:01:06 437.425
AO-7 01 Feb 18:05:30 18:10:37 16° 278° (W) 18:15:19 29.400- 29.500
JAS-2 01 Feb 18:07:19 18:10:42 16° 274° (W) 18:13:51 435.910
AUBIESAT-1 01 Feb 18:19:50 18:21:25 13° 306° (NW) 18:22:55 437.475
Cubesat XI-IV 01 Feb 18:20:14 18:25:31 63° 258° (WSW) 18:30:52 437.490
CUTE-I 01 Feb 18:39:22 18:44:29 46° 262° (W) 18:49:38 437.470
CANX-2 01 Feb 18:48:16 18:49:12 11° 55° (NE) 18:50:19 2200.000
DOVE 4 01 Feb 18:54:08 18:56:16 13° 51° (NE) 18:58:37 437.250
GOMX 1 01 Feb 18:58:28 19:01:52 18° 55° (NE) 19:05:29 467.674
MOZHAYETS 4 01 Feb 19:03:15 19:06:59 24° 298° (WNW) 19:10:36
CUTE 1.7 + AOD 2 01 Feb 19:10:07 19:12:34 15° 59° (ENE) 19:15:09 437.475
BRITE-PL 01 Feb 19:21:05 19:25:46 32° 62° (ENE) 19:30:44 437.365/2234.400
SO-50 01 Feb 19:22:32 19:26:47 29° 242° (WSW) 19:30:58 436.795
CUBESAT XI-V 01 Feb 19:28:41 19:33:24 72° 102° (ESE) 19:38:07 437.345
STRAND 1 01 Feb 19:30:03 19:35:05 51° 100° (E) 19:40:07 437.568
PRISM 01 Feb 19:31:16 19:35:27 83° 286° (WNW) 19:39:38 437.425
YUBILEINY 01 Feb 19:31:46 19:40:08 56° 91° (E) 19:48:37 435.215
SEEDS 01 Feb 19:34:26 19:37:37 21° 62° (ENE) 19:40:53 437.485
HO-68 01 Feb 19:40:55 19:47:46 52° 63° (ENE) 19:54:40 435.675
CINEMA 3 01 Feb 19:48:00 19:51:26 19° 58° (ENE) 19:55:01 145.822/145.860
DELFI C3 01 Feb 19:53:51 19:55:05 11° 56° (NE) 19:56:28 145.870
COMPASS 1 01 Feb 19:54:55 19:58:27 27° 65° (ENE) 20:02:03 437.405
UKube-1 01 Feb 20:03:36 20:05:21 12° 54° (NE) 20:07:16 .
Cubesat XI-IV 01 Feb 20:05:50 20:06:52 10° 279° (W) 20:07:35 437.490
AAUSAT CUBESAT 2 01 Feb 20:17:46 20:21:40 38° 68° (ENE) 20:25:35 437.432
CANX-2 01 Feb 20:20:10 20:24:26 67° 73° (ENE) 20:28:41 2200.000
ZACube-1 01 Feb 20:24:51 20:27:45 17° 58° (ENE) 20:30:46 437.345
DX 1 01 Feb 20:27:29 20:30:37 20° 60° (ENE) 20:33:52 434.975-435.025
DOVE 4 01 Feb 20:27:56 20:33:02 58° 71° (ENE) 20:38:18 437.250
CUBEBUG 2 01 Feb 20:33:15 20:37:12 26° 63° (ENE) 20:41:12 437.445
GOMX 1 01 Feb 20:33:56 20:39:13 82° 74° (ENE) 20:44:46 467.674
FUNcube-1 01 Feb 20:34:58 20:38:16 20° 60° (ENE) 20:41:39 145.935
ISS 01 Feb 20:41:23 20:41:56 10° 137° (SE) 20:42:35 145.825
CUTE 1.7 + AOD 2 01 Feb 20:43:43 20:48:01 80° 257° (WSW) 20:52:19 437.475
BRITE-PL 01 Feb 20:58:54 21:04:04 51° 263° (W) 21:09:33 437.365/2234.400
Oscar 11 01 Feb 20:59:05 21:03:18 52° 71° (ENE) 21:07:34 145.826/435.025
UWE-3 01 Feb 21:04:24 21:08:47 40° 68° (ENE) 21:13:11 435.000/436.395/437.385
CUBESAT XI-V 01 Feb 21:07:03 21:10:24 19° 301° (WNW) 21:13:40 437.345
PRISM 01 Feb 21:08:29 21:10:22 13° 304° (NW) 21:12:08 437.425
SEEDS 01 Feb 21:09:01 21:13:11 52° 260° (W) 21:17:21 437.485
STRAND 1 01 Feb 21:09:40 21:14:06 29° 299° (WNW) 21:18:28 437.568
AISAT 01 Feb 21:10:26 21:13:49 22° 60° (ENE) 21:17:18 437.250
CINEMA 3 01 Feb 21:23:03 21:28:06 82° 258° (WSW) 21:33:12 145.822/145.860
DELFI C3 01 Feb 21:25:36 21:29:41 77° 74° (ENE) 21:33:46 145.870
ESTCUBE 1 01 Feb 21:26:48 21:29:26 16° 57° (ENE) 21:32:12 437.505/2401.250
HO-68 01 Feb 21:29:02 21:35:44 41° 264° (W) 21:42:24 435.675
YUBILEINY 01 Feb 21:29:10 21:37:21 42° 295° (WNW) 21:45:32 435.215
COMPASS 1 01 Feb 21:30:07 21:34:04 38° 263° (W) 21:38:02 437.405
HUMSAT D 01 Feb 21:31:36 21:35:32 35° 67° (ENE) 21:39:31 437.325/437.525
CUBEBUG 1 01 Feb 21:33:40 21:36:20 16° 58° (ENE) 21:39:07 437.445
VELOX 1 01 Feb 21:35:50 21:39:49 34° 65° (ENE) 21:43:52 145.980
UKube-1 01 Feb 21:36:31 21:40:50 75° 73° (ENE) 21:45:13 .
AIST 1 01 Feb 21:38:02 21:41:54 30° 69° (ENE) 21:45:49
AAUSAT CUBESAT 2 01 Feb 21:53:53 21:57:28 26° 267° (W) 22:01:00 437.432
CANX-2 01 Feb 21:58:09 22:00:52 16° 272° (W) 22:03:29 2200.000
ZACube-1 01 Feb 21:58:59 22:03:37 81° 256° (WSW) 22:08:15 437.345
DX 1 01 Feb 22:02:12 22:06:31 61° 258° (WSW) 22:10:54 434.975-435.025
50 SAT 01 Feb 22:06:17 22:10:19 55° 71° (ENE) 22:14:23 437.505
DOVE 4 01 Feb 22:06:51 22:11:11 26° 271° (W) 22:15:33 437.250
CUBEBUG 2 01 Feb 22:09:00 22:13:41 51° 261° (W) 22:18:21 437.445
FUNcube-1 01 Feb 22:09:38 22:14:13 66° 258° (WSW) 22:18:49 145.935
GOMX 1 01 Feb 22:14:24 22:18:07 18° 275° (W) 22:21:46 467.674
ISS 01 Feb 22:14:40 22:17:47 42° 154° (SSE) 22:20:57 145.825
UNISAT 6 01 Feb 22:15:19 22:17:44 15° 86° (E) 22:20:18 437.425
CUTE 1.7 + AOD 2 01 Feb 22:24:04 22:24:47 10° 277° (W) 22:25:15 437.475
BUGSAT 1 01 Feb 22:36:10 22:37:15 11° 84° (E) 22:38:34 437.445
Oscar 11 01 Feb 22:36:31 22:39:50 20° 270° (W) 22:43:04 145.826/435.025
QB50P2 01 Feb 22:36:36 22:38:56 15° 87° (E) 22:41:26 145.880/145.840
SPROUT 01 Feb 22:38:46 22:41:44 19° 60° (ENE) 22:44:48 437.525
UWE-3 01 Feb 22:41:14 22:45:26 31° 266° (W) 22:49:35 435.000/436.395/437.385
QB50P1 01 Feb 22:44:10 22:46:57 17° 88° (E) 22:49:50 145.935-145.965
AISAT 01 Feb 22:45:43 22:50:08 57° 259° (W) 22:54:35 437.250
ANTELSAT 01 Feb 22:50:38 22:54:35 30° 94° (E) 22:58:27 437.575/2403.000
TIGRISAT 01 Feb 22:55:55 22:59:57 33° 95° (E) 23:03:55 435.000
TISAT 1 01 Feb 23:01:11 23:04:46 27° 64° (ENE) 23:08:27 437.305
POLYITAN 1 01 Feb 23:01:12 23:04:44 24° 92° (E) 23:08:18 437.675
ESTCUBE 1 01 Feb 23:01:16 23:05:46 85° 255° (WSW) 23:10:19 437.505/2401.250
DELFI C3 01 Feb 23:03:35 23:05:32 13° 274° (W) 23:07:19 145.870
CINEMA 3 01 Feb 23:03:35 23:06:11 14° 277° (W) 23:08:34 145.822/145.860
HUMSAT D 01 Feb 23:07:29 23:11:23 31° 266° (W) 23:15:15 437.325/437.525
CUBEBUG 1 01 Feb 23:07:50 23:12:12 79° 256° (WSW) 23:16:38 437.445
VELOX 1 01 Feb 23:12:21 23:16:25 34° 264° (W) 23:20:30 145.980
UKube-1 01 Feb 23:15:07 23:17:37 15° 273° (W) 23:19:59 .
AIST 1 01 Feb 23:15:40 23:19:37 33° 269° (W) 23:23:31
POPSAT HIP 1 01 Feb 23:18:45 23:22:43 34° 96° (E) 23:26:41 437.405
DUCHIFAT 1 01 Feb 23:18:58 23:22:56 34° 96° (E) 23:26:52 145.980
YUBILEINY 01 Feb 23:33:44 23:37:25 13° 324° (NW) 23:40:43 435.215
ZACube-1 01 Feb 23:39:01 23:40:50 12° 277° (W) 23:42:25 437.345
SWISSCUBE 01 Feb 23:42:00 23:45:05 18° 57° (ENE) 23:48:19 437.505
50 SAT 01 Feb 23:42:53 23:45:49 18° 271° (W) 23:48:38 437.505
GONETS M04 01 Feb 23:42:56 23:48:00 18° 73° (ENE) 23:53:26
UNISAT 6 01 Feb 23:50:43 23:55:13 76° 287° (WNW) 23:59:33 437.425
ISS 01 Feb 23:50:52 23:54:10 84° 353° (N) 23:57:29 145.825
NANOSAT C BR1 01 Feb 23:54:21 23:58:42 76° 103° (ESE) 00:02:59 145.865
BEESAT 01 Feb 23:56:26 23:59:58 21° 59° (ENE) 00:03:36 436.000
ITUPSAT 1 02 Feb 00:02:43 00:06:25 24° 60° (ENE) 00:10:14 437.325
BUGSAT 1 02 Feb 00:09:12 00:13:32 84° 103° (ESE) 00:17:50 437.445
QB50P2 02 Feb 00:11:08 00:15:28 74° 287° (WNW) 00:19:45 145.880/145.840
SPROUT 02 Feb 00:13:06 00:17:26 66° 258° (WSW) 00:21:47 437.525
QB50P1 02 Feb 00:19:02 00:23:20 63° 288° (WNW) 00:27:34 145.935-145.965
ANTELSAT 02 Feb 00:27:21 00:31:28 36° 294° (WNW) 00:35:26 437.575/2403.000
O/OREOS (USA 219) 02 Feb 00:29:13 00:33:23 32° 50° (NE) 00:37:34 437.305
TIGRISAT 02 Feb 00:32:42 00:36:44 33° 295° (WNW) 00:40:38 435.000
TISAT 1 02 Feb 00:36:28 00:40:29 39° 263° (W) 00:44:32 437.305
POLYITAN 1 02 Feb 00:36:46 00:40:54 43° 291° (WNW) 00:44:58 437.675
ESTCUBE 1 02 Feb 00:41:43 00:43:29 12° 276° (W) 00:45:02 437.505/2401.250
CUBEBUG 1 02 Feb 00:48:29 00:49:28 10° 277° (W) 00:50:12 437.445
KKS-1 02 Feb 00:48:53 00:51:25 15° 56° (ENE) 00:54:07 437.445
POPSAT HIP 1 02 Feb 00:54:46 00:58:36 31° 295° (WNW) 01:02:22 437.405
DUCHIFAT 1 02 Feb 00:54:55 00:58:45 31° 295° (WNW) 01:02:31 145.980
BEESAT 3 02 Feb 01:05:22 01:07:21 14° 112° (ESE) 01:09:30 437.485
SWISSCUBE 02 Feb 01:17:40 01:22:26 81° 256° (WSW) 01:27:14 437.505
ISS 02 Feb 01:27:23 01:30:41 80° 197° (SSW) 01:34:00 145.825
UNISAT 6 02 Feb 01:29:17 01:31:17 13° 306° (NW) 01:33:07 437.425
NANOSAT C BR1 02 Feb 01:31:21 01:34:06 16° 302° (WNW) 01:36:43 145.865
BEESAT 02 Feb 01:32:43 01:37:27 65° 258° (WSW) 01:42:14 436.000
M-CUBED/EXP-1 PRIME 02 Feb 01:34:25 01:36:41 16° 56° (NE) 01:38:56 437.505
GONETS M04 02 Feb 01:34:44 01:43:23 71° 95° (E) 01:52:04
ITUPSAT 1 02 Feb 01:39:19 01:44:01 58° 259° (W) 01:48:46 437.325
BUGSAT 1 02 Feb 01:45:59 01:48:30 15° 302° (WNW) 01:50:55 437.445
QB50P2 02 Feb 01:48:57 01:50:41 12° 305° (NW) 01:52:17 145.880/145.840
Oscar 19 02 Feb 01:50:55 01:55:44 39° 96° (E) 02:00:33 437.125/150
QB50P1 02 Feb 01:57:29 01:58:27 11° 307° (NW) 01:59:15 145.935-145.965
Gurwin Techsat 1B 02 Feb 01:59:28 02:02:09 14° 84° (E) 02:05:05 435.225
AUBIESAT-1 02 Feb 02:03:09 02:06:14 26° 60° (ENE) 02:09:12 437.475
STARS 02 Feb 02:07:27 02:11:43 47° 69° (ENE) 02:16:02 437.465
O/OREOS (USA 219) 02 Feb 02:08:35 02:12:56 41° 250° (WSW) 02:17:14 437.305
ITAMSAT 1 02 Feb 02:16:31 02:20:50 26° 92° (E) 02:25:13 435.822/435.867
KKS-1 02 Feb 02:22:59 02:27:30 89° 255° (WSW) 02:32:03 437.445
BEESAT 2 02 Feb 02:31:00 02:35:07 66° 127° (SE) 02:39:18 435.950
BEESAT 3 02 Feb 02:40:46 02:44:54 88° 131° (SE) 02:49:07 437.485
AIST 2 02 Feb 02:48:54 02:52:59 46° 124° (ESE) 02:57:09 435.215
PCSat 02 Feb 02:51:14 02:53:14 12° 104° (ESE) 02:55:31 145.827
DANDE 02 Feb 02:52:53 02:58:52 22° 80° (E) 03:04:59 436.750
MOZHAYETS 4 02 Feb 02:57:59 03:00:24 15° 56° (NE) 03:02:58
CUSAT 1 02 Feb 02:58:47 03:05:17 27° 84° (E) 03:11:44 437.405
SWISSCUBE 02 Feb 02:59:12 03:01:12 12° 276° (W) 03:02:59 437.505
ISS 02 Feb 03:04:05 03:06:54 26° 213° (SSW) 03:09:42 145.825
M-CUBED/EXP-1 PRIME 02 Feb 03:07:40 03:11:25 59° 252° (WSW) 03:14:56 437.505
Oscar 19 02 Feb 03:30:22 03:35:06 36° 296° (WNW) 03:39:45 437.125/150
GONETS M04 02 Feb 03:33:16 03:41:05 34° 300° (WNW) 03:48:48
Gurwin Techsat 1B 02 Feb 03:37:43 03:43:05 83° 103° (ESE) 03:48:26 435.225
AUBIESAT-1 02 Feb 03:37:45 03:41:09 31° 256° (WSW) 03:44:20 437.475
YUBILEINY 02 Feb 03:40:23 03:42:47 11° 33° (NNE) 03:45:35 435.215
STARS 02 Feb 03:44:47 03:48:27 24° 268° (W) 03:52:04 437.465
ITAMSAT 1 02 Feb 03:55:34 04:00:42 55° 292° (WNW) 04:05:48 435.822/435.867
HORYU 2 02 Feb 04:00:47 04:05:07 48° 99° (E) 04:09:26 437.375
KKS-1 02 Feb 04:02:53 04:04:56 13° 275° (W) 04:06:47 437.445
AO-7 02 Feb 04:03:31 04:10:44 32° 92° (E) 04:18:03 29.400- 29.500
BEESAT 2 02 Feb 04:10:05 04:13:41 27° 328° (NNW) 04:17:19 435.950
RS-15 02 Feb 04:16:22 04:25:58 40° 111° (ESE) 04:35:53 29.354- 29.394
BEESAT 3 02 Feb 04:20:12 04:23:35 23° 332° (NNW) 04:26:56 437.485
AIST 2 02 Feb 04:27:47 04:31:45 35° 324° (NW) 04:35:44 435.215
PCSat 02 Feb 04:30:24 04:35:46 67° 123° (ESE) 04:41:11 145.827
MOZHAYETS 4 02 Feb 04:32:26 04:37:02 86° 75° (ENE) 04:41:38
DANDE 02 Feb 04:32:46 04:41:23 77° 99° (E) 04:49:41 436.750
CUSAT 1 02 Feb 04:39:08 04:47:41 90° 280° (W) 04:55:39 437.405
PRISM 02 Feb 04:52:46 04:55:42 20° 61° (ENE) 04:58:44 437.425
CUBESAT XI-V 02 Feb 05:01:33 05:04:49 20° 59° (ENE) 05:08:12 437.345
JAS-2 02 Feb 05:06:18 05:11:45 45° 98° (E) 05:17:53 435.910
STRAND 1 02 Feb 05:13:40 05:17:32 23° 58° (ENE) 05:21:30 437.568
Gurwin Techsat 1B 02 Feb 05:18:39 05:22:31 20° 304° (NW) 05:26:16 435.225
YUBILEINY 02 Feb 05:35:06 05:43:07 38° 63° (ENE) 05:51:14 435.215
ITAMSAT 1 02 Feb 05:37:11 05:39:14 12° 311° (NW) 05:41:04 435.822/435.867
HORYU 2 02 Feb 05:37:56 05:41:35 25° 298° (WNW) 05:45:09 437.375
GONETS M04 02 Feb 05:41:03 05:41:40 10° 330° (NNW) 05:41:54
BEESAT 2 02 Feb 05:51:06 05:53:14 13° 352° (N) 05:55:20 435.950
AO-7 02 Feb 05:56:00 06:04:21 74° 294° (WNW) 06:12:36 29.400- 29.500
BEESAT 3 02 Feb 06:01:10 06:03:08 13° 355° (N) 06:05:04 437.485
AIST 2 02 Feb 06:08:59 06:11:34 15° 347° (NNW) 06:14:06 435.215
MOZHAYETS 4 02 Feb 06:12:35 06:15:00 14° 275° (W) 06:17:13
PCSat 02 Feb 06:14:44 06:19:38 33° 324° (NW) 06:24:31 145.827
DANDE 02 Feb 06:17:47 06:25:36 35° 300° (WNW) 06:32:54 436.750
CUSAT 1 02 Feb 06:24:32 06:31:42 29° 303° (WNW) 06:38:12 437.405
RS-15 02 Feb 06:26:40 06:37:37 78° 316° (NW) 06:48:49 29.354- 29.394
PRISM 02 Feb 06:26:53 06:30:55 55° 259° (W) 06:34:59 437.425
Cubesat XI-IV 02 Feb 06:32:18 06:37:13 36° 95° (E) 06:42:11 437.490
CUBESAT XI-V 02 Feb 06:37:16 06:41:52 67° 258° (WSW) 06:46:31 437.345
CUTE-I 02 Feb 06:50:51 06:56:04 49° 99° (E) 07:01:17 437.470
STRAND 1 02 Feb 06:51:14 06:56:19 69° 257° (WSW) 07:01:28 437.568
JAS-2 02 Feb 06:51:42 06:56:53 38° 296° (WNW) 07:02:34 435.910
BEESAT 2 02 Feb 07:30:31 07:33:03 15° 16° (NNE) 07:35:36 435.950
YUBILEINY 02 Feb 07:31:55 07:40:34 64° 267° (W) 07:49:12 435.215
BEESAT 3 02 Feb 07:40:05 07:42:49 17° 19° (NNE) 07:45:36 437.485
AIST 2 02 Feb 07:49:21 07:51:48 15° 11° (N) 07:54:16 435.215
AO-7 02 Feb 07:49:35 07:56:00 25° 318° (NW) 08:02:12 29.400- 29.500
PCSat 02 Feb 08:01:23 08:04:44 16° 349° (N) 08:08:04 145.827
DANDE 02 Feb 08:09:01 08:11:49 11° 324° (NW) 08:14:09 436.750
Cubesat XI-IV 02 Feb 08:12:23 08:17:27 42° 295° (WNW) 08:22:29 437.490
DOVE 4 02 Feb 08:24:29 08:26:21 12° 80° (E) 08:28:27 437.250
CUTE 1.7 + AOD 2 02 Feb 08:25:41 08:27:33 13° 85° (E) 08:29:35 437.475
TIGRISAT 02 Feb 08:27:06 08:27:58 11° 52° (NE) 08:29:01 435.000
CUTE-I 02 Feb 08:31:15 08:36:01 32° 298° (WNW) 08:40:42 437.470
GOMX 1 02 Feb 08:31:55 08:35:46 20° 86° (E) 08:39:38 467.674
STRAND 1 02 Feb 08:35:07 08:36:38 11° 278° (W) 08:37:52 437.568
RS-15 02 Feb 08:41:30 08:51:51 43° 347° (NNW) 09:02:31 29.354- 29.394
SEEDS 02 Feb 08:49:13 08:52:09 19° 89° (E) 08:55:11 437.485
HO-68 02 Feb 08:50:24 08:56:41 32° 93° (E) 09:03:03 435.675
BRITE-PL 02 Feb 08:58:35 09:04:01 44° 95° (E) 09:09:13 437.365/2234.400
BEESAT 2 02 Feb 09:08:22 09:12:20 39° 38° (NE) 09:16:17 435.950
COMPASS 1 02 Feb 09:08:55 09:12:19 24° 92° (E) 09:15:46 437.405
CINEMA 3 02 Feb 09:14:20 09:17:37 19° 86° (E) 09:20:57 145.822/145.860
BEESAT 3 02 Feb 09:17:50 09:21:55 49° 41° (NE) 09:25:57 437.485
NANOSAT C BR1 02 Feb 09:18:14 09:20:54 17° 59° (ENE) 09:23:41 145.865
UNISAT 6 02 Feb 09:18:45 09:22:39 27° 63° (ENE) 09:26:34 437.425
PHONESAT 2.4 02 Feb 09:22:29 09:24:23 14° 170° (S) 09:26:18 2401.200-2431.200
AIST 2 02 Feb 09:27:46 09:31:40 32° 34° (NE) 09:35:33 435.215
BUGSAT 1 02 Feb 09:30:50 09:33:28 17° 59° (ENE) 09:36:13 437.445
YUBILEINY 02 Feb 09:30:54 09:35:45 16° 289° (WNW) 09:40:09 435.215
AAUSAT CUBESAT 2 02 Feb 09:31:28 09:35:18 35° 96° (E) 09:39:08 437.432
VERMONT LUNAR 02 Feb 09:34:09 09:36:08 15° 178° (S) 09:38:09 437.305
QB50P2 02 Feb 09:34:25 09:37:45 23° 62° (ENE) 09:41:11 145.880/145.840
CANX-2 02 Feb 09:36:24 09:40:38 66° 101° (ESE) 09:44:49 2200.000
SO-50 02 Feb 09:41:43 09:45:40 29° 118° (ESE) 09:49:48 436.795
QB50P1 02 Feb 09:41:53 09:45:25 26° 63° (ENE) 09:49:01 145.935-145.965
GONETS M04 02 Feb 09:42:59 09:47:00 14° 39° (NE) 09:51:24
AO-7 02 Feb 09:43:54 09:45:51 11° 344° (NNW) 09:47:39 29.400- 29.500
ZACube-1 02 Feb 09:44:21 09:46:41 14° 86° (E) 09:49:09 437.345
DX 1 02 Feb 09:46:29 09:49:14 17° 88° (E) 09:52:08 434.975-435.025
PCSat 02 Feb 09:46:45 09:50:18 17° 15° (NNE) 09:53:53 145.827
ANTELSAT 02 Feb 09:54:18 09:58:52 52° 70° (ENE) 10:03:24 437.575/2403.000
FUNcube-1 02 Feb 09:54:18 09:57:14 18° 88° (E) 10:00:13 145.935
CUBEBUG 2 02 Feb 09:55:46 09:59:33 25° 91° (E) 10:03:16 437.445
POLYITAN 1 02 Feb 09:59:15 10:03:13 36° 67° (ENE) 10:07:14 437.675
TIGRISAT 02 Feb 09:59:16 10:03:52 57° 71° (ENE) 10:08:27 435.000
CUTE 1.7 + AOD 2 02 Feb 09:59:54 10:04:10 81° 284° (WNW) 10:08:22 437.475
DOVE 4 02 Feb 09:59:59 10:05:14 74° 102° (ESE) 10:10:10 437.250
GOMX 1 02 Feb 10:09:06 10:14:34 74° 287° (WNW) 10:19:44 467.674
AIST 1 02 Feb 10:15:08 10:17:10 14° 83° (E) 10:19:23
DUCHIFAT 1 02 Feb 10:16:26 10:20:35 50° 70° (ENE) 10:24:48 145.980
POPSAT HIP 1 02 Feb 10:16:32 10:20:42 51° 70° (ENE) 10:24:56 437.405
Oscar 11 02 Feb 10:17:22 10:21:36 52° 100° (E) 10:25:48 145.826/435.025
SEEDS 02 Feb 10:24:14 10:28:22 54° 289° (WNW) 10:32:26 437.485
UWE-3 02 Feb 10:25:52 10:30:08 40° 96° (E) 10:34:16 435.000/436.395/437.385
AISAT 02 Feb 10:32:16 10:35:34 20° 90° (E) 10:38:57 437.250
DELFI C3 02 Feb 10:35:56 10:39:59 66° 102° (ESE) 10:44:00 145.870
BRITE-PL 02 Feb 10:37:15 10:42:27 37° 296° (WNW) 10:47:25 437.365/2234.400
HO-68 02 Feb 10:37:51 10:44:56 65° 294° (WNW) 10:52:00 435.675
COMPASS 1 02 Feb 10:44:17 10:48:14 41° 291° (WNW) 10:52:08 437.405
HUMSAT D 02 Feb 10:46:36 10:50:23 31° 94° (E) 10:54:08 437.325/437.525
BEESAT 2 02 Feb 10:46:40 10:50:34 37° 238° (WSW) 10:54:24 435.950
ESTCUBE 1 02 Feb 10:50:14 10:52:43 15° 86° (E) 10:55:22 437.505/2401.250
CINEMA 3 02 Feb 10:50:34 10:55:25 67° 288° (WNW) 11:00:01 145.822/145.860
NANOSAT C BR1 02 Feb 10:52:01 10:56:18 75° 257° (WSW) 11:00:38 145.865
CUBEBUG 1 02 Feb 10:53:05 10:55:26 14° 86° (E) 10:57:58 437.445
UNISAT 6 02 Feb 10:54:43 10:59:16 47° 261° (W) 11:03:47 437.425
UKube-1 02 Feb 10:55:12 10:59:35 67° 103° (ESE) 11:03:56 .
BEESAT 3 02 Feb 10:56:17 10:59:53 28° 241° (WSW) 11:03:23 437.485
RS-15 02 Feb 10:56:37 11:07:13 47° 20° (NNE) 11:18:17 29.354- 29.394
VELOX 1 02 Feb 10:57:36 11:01:39 32° 95° (E) 11:05:43 145.980
PHONESAT 2.4 02 Feb 11:00:03 11:02:06 15° 187° (S) 11:04:10 2401.200-2431.200
BUGSAT 1 02 Feb 11:04:22 11:08:30 71° 257° (WSW) 11:12:45 437.445
AIST 2 02 Feb 11:06:18 11:10:31 53° 235° (SW) 11:14:39 435.215
AAUSAT CUBESAT 2 02 Feb 11:07:18 11:10:55 28° 295° (WNW) 11:14:28 437.432
QB50P2 02 Feb 11:09:14 11:13:25 50° 260° (W) 11:17:40 145.880/145.840
VERMONT LUNAR 02 Feb 11:12:21 11:13:23 11° 195° (SSW) 11:14:23 437.305
CANX-2 02 Feb 11:13:17 11:16:11 18° 300° (WNW) 11:18:57 2200.000
50 SAT 02 Feb 11:15:40 11:19:34 44° 98° (E) 11:23:26 437.505
QB50P1 02 Feb 11:17:03 11:21:09 43° 262° (W) 11:25:17 145.935-145.965
ZACube-1 02 Feb 11:19:17 11:23:44 76° 287° (WNW) 11:28:02 437.345
SO-50 02 Feb 11:21:25 11:26:01 56° 319° (NW) 11:30:46 436.795
DX 1 02 Feb 11:21:37 11:26:01 68° 288° (WNW) 11:30:24 434.975-435.025
FUNcube-1 02 Feb 11:29:42 11:34:05 62° 289° (WNW) 11:38:20 145.935
PCSat 02 Feb 11:30:08 11:35:14 39° 40° (NE) 11:40:21 145.827
CUBEBUG 2 02 Feb 11:32:07 11:36:30 44° 292° (WNW) 11:40:41 437.445
ANTELSAT 02 Feb 11:32:11 11:35:58 23° 269° (W) 11:39:40 437.575/2403.000
AO-7 02 Feb 11:33:31 11:34:46 10° 14° (NNE) 11:36:11 29.400- 29.500
POLYITAN 1 02 Feb 11:35:25 11:39:14 29° 266° (W) 11:43:03 437.675
Oscar 19 02 Feb 11:35:49 11:39:15 19° 55° (NE) 11:42:48 437.125/150
TIGRISAT 02 Feb 11:37:20 11:41:00 22° 270° (W) 11:44:33 435.000
CUTE 1.7 + AOD 2 02 Feb 11:37:36 11:39:27 12° 304° (NW) 11:41:09 437.475
GONETS M04 02 Feb 11:38:29 11:46:48 47° 67° (ENE) 11:55:09
DOVE 4 02 Feb 11:38:33 11:42:27 21° 302° (WNW) 11:46:08 437.250
GOMX 1 02 Feb 11:48:34 11:51:50 16° 307° (NW) 11:54:51 467.674
AIST 1 02 Feb 11:50:03 11:54:19 74° 282° (WNW) 11:58:37
DUCHIFAT 1 02 Feb 11:53:27 11:56:46 21° 269° (W) 12:00:01 145.980
POPSAT HIP 1 02 Feb 11:53:37 11:56:56 21° 270° (W) 12:00:11 437.405
Oscar 11 02 Feb 11:54:09 11:57:31 22° 298° (WNW) 12:00:47 145.826/435.025
SPROUT 02 Feb 11:55:51 11:58:33 16° 88° (E) 12:01:22 437.525
UWE-3 02 Feb 12:02:41 12:06:34 28° 296° (WNW) 12:10:17 435.000/436.395/437.385
ITAMSAT 1 02 Feb 12:03:30 12:05:54 14° 50° (NE) 12:08:29 435.822/435.867
AISAT 02 Feb 12:08:08 12:12:36 58° 290° (WNW) 12:17:02 437.250
DELFI C3 02 Feb 12:12:12 12:14:49 16° 300° (WNW) 12:17:20 145.870
TISAT 1 02 Feb 12:16:24 12:19:52 24° 92° (E) 12:23:23 437.305
HUMSAT D 02 Feb 12:22:23 12:26:13 33° 294° (WNW) 12:29:57 437.325/437.525
ESTCUBE 1 02 Feb 12:25:41 12:30:15 79° 286° (WNW) 12:34:48 437.505/2401.250
HO-68 02 Feb 12:26:43 12:31:31 19° 316° (NW) 12:36:08 435.675
CUBEBUG 1 02 Feb 12:27:58 12:32:28 79° 286° (WNW) 12:36:55 437.445
CINEMA 3 02 Feb 12:29:36 12:31:46 13° 307° (NW) 12:33:43 145.822/145.860
UKube-1 02 Feb 12:32:16 12:35:20 19° 301° (WNW) 12:38:19 .
VELOX 1 02 Feb 12:34:09 12:38:17 35° 294° (WNW) 12:42:22 145.980
50 SAT 02 Feb 12:51:15 12:54:28 22° 297° (WNW) 12:57:34 437.505
ZACube-1 02 Feb 12:57:26 12:59:24 13° 305° (NW) 13:01:12 437.345
DX 1 02 Feb 12:59:56 13:01:32 12° 307° (NW) 13:02:58 434.975-435.025
SO-50 02 Feb 13:03:55 13:07:34 21° 342° (NNW) 13:11:15 436.795
FUNcube-1 02 Feb 13:08:39 13:09:36 10° 307° (NW) 13:10:22 145.935
RS-15 02 Feb 13:09:46 13:21:05 89° 47° (NE) 13:32:56 29.354- 29.394
Oscar 19 02 Feb 13:12:48 13:18:00 89° 242° (WSW) 13:23:15 437.125/150
PCSat 02 Feb 13:13:35 13:18:51 51° 241° (WSW) 13:24:04 145.827
SWISSCUBE 02 Feb 13:13:47 13:17:02 18° 88° (E) 13:20:26 437.505
AO-7 02 Feb 13:18:32 13:24:31 23° 41° (NE) 13:30:42 29.400- 29.500
Gurwin Techsat 1B 02 Feb 13:24:54 13:29:43 37° 64° (ENE) 13:34:36 435.225
BEESAT 02 Feb 13:28:21 13:32:04 23° 91° (E) 13:35:53 436.000
DANDE 02 Feb 13:30:09 13:34:50 20° 48° (NE) 13:38:54 436.750
HORYU 2 02 Feb 13:30:12 13:32:32 14° 56° (NE) 13:34:59 437.375
SPROUT 02 Feb 13:30:49 13:35:10 67° 288° (WNW) 13:39:29 437.525
AIST 1 02 Feb 13:31:54 13:32:55 11° 304° (NW) 13:33:46
